SCP
4 3 3 3 2 2 3 3 3 3 3 4 4 4 4 4 5 5 5 4 4 4 4 5 5 5 4 4 3 3 4 3 3 2 2 2 2 2 2 2 2 1 1
4 4 4 4 3 3 4 3 3 3 3 4 5 5 5 5 5 6 5 5 5 5 5 4 4 4 4 4 3 3 3 3 3 3 2 2 2 3 2 2 2 1 1
4 4 4 5 5 6 6 5 4 3 3 4 5 6 5 5 6 6 6 5 5 5 4 4 4 4 4 4 3 3 3 3 3 3 2 2 2 3 2 2 2 2 1
4 5 5 5 6 7 7 6 5 4 4 5 6 7 7 6 6 6 6 5 5 4 4 4 4 4 4 4 3 3 3 3 3 3 2 2 2 2 2 2 2 2 2
5 5 5 5 6 7 7 6 5 4 4 5 6 7 7 7 6 5 5 5 4 4 4 4 4 3 3 3 3 3 3 3 3 3 2 2 2 2 2 2 2 2 2
6 6 6 7 7 7 6 5 5 4 5 6 6 6 7 6 5 4 5 5 5 5 6 5 4 3 2 2 2 2 2 2 2 2 3 2 2 2 2 2 2 2 2
6 7 9 9 8 7 6 5 5 5 7 7 6 6 6 5 4 3 3 4 5 7 8 7 6 4 3 2 2 1 2 2 2 2 2 2 2 3 2 2 2 2 2
9 10 10 9 7 6 6 6 6 7 7 7 6 6 6 5 4 3 3 4 6 8 8 8 7 4 3 2 2 2 2 2 1 1 2 2 2 2 2 2 2 3 3
11 11 9 7 6 6 6 6 7 8 7 7 7 6 6 5 4 2 3 5 7 8 7 7 6 4 3 2 2 3 3 3 2 2 2 2 2 1 1 2 2 3 3
10 10 8 6 6 6 5 6 7 8 8 7 7 7 6 5 3 2 3 5 7 6 6 5 4 3 2 1 1 2 3 3 3 3 2 2 2 2 2 2 3 4 4
8 8 6 5 5 5 5 6 8 8 8 8 8 7 6 5 3 2 2 4 5 6 6 6 4 3 1 1 1 2 2 2 2 2 3 3 3 3 3 3 4 5 5
6 6 5 4 4 5 6 8 10 10 10 10 10 8 6 5 3 2 2 2 3 5 6 5 4 2 1 0 0 1 1 1 1 2 2 2 2 3 3 4 5 5 5
5 5 4 4 4 5 7 10 12 12 12 13 13 10 7 5 4 3 2 1 2 3 5 4 3 1 1 0 0 0 1 1 1 1 1 2 2 2 2 3 4 4 4
5 5 5 5 5 7 9 10 12 13 14 15 15 11 7 5 5 4 4 3 2 3 4 3 2 1 1 1 1 1 1 1 2 2 2 2 2 2 2 2 3 3 3
6 6 5 5 6 8 10 10 10 11 13 14 13 11 7 6 5 4 4 3 3 3 3 3 3 2 2 3 3 3 3 3 2 2 2 2 2 2 2 2 2 2 2
6 5 5 5 6 8 9 9 8 8 8 8 8 7 6 4 3 2 2 2 2 2 3 3 3 3 3 3 4 4 4 4 4 3 3 3 3 2 2 2 2 2 2
4 5 5 5 6 6 7 7 6 5 4 3 3 3 3 2 1 0 0 0 1 1 2 3 4 4 4 4 4 4 4 4 5 5 4 4 3 3 3 3 2 2 2
4 5 5 5 5 5 5 5 5 5 3 3 2 1 1 0 0 0 0 0 1 1 2 4 4 5 5 5 4 4 4 5 5 5 5 5 4 4 4 3 3 3 3
4 5 5 5 5 5 4 4 5 6 5 4 3 2 0 0 0 0 1 1 2 3 3 4 5 6 7 7 6 5 5 5 5 5 5 5 5 5 4 4 4 3 3
4 4 4 5 6 6 5 4 5 6 5 5 3 2 1 1 1 1 2 3 3 4 4 5 6 7 8 8 8 7 5 4 4 5 5 5 5 5 5 4 4 4 4
4 4 4 5 7 7 7 6 6 6 5 5 3 2 1 1 2 2 2 3 4 4 4 5 6 7 9 10 9 8 6 4 4 5 5 4 3 4 4 4 4 4 5
4 5 5 6 7 8 8 8 8 7 6 5 4 3 2 2 3 3 3 3 4 4 5 5 7 8 10 11 11 9 7 5 5 6 6 4 3 2 3 3 4 4 4
5 5 6 7 8 9 10 10 9 7 7 7 6 5 4 3 3 4 4 4 4 5 5 6 7 8 10 12 12 10 7 6 6 7 6 4 3 2 2 3 3 3 4
4 5 6 7 8 10 11 9 7 7 7 7 8 8 7 5 5 5 5 5 5 5 5 5 6 8 10 11 11 10 7 6 6 7 6 4 3 2 2 3 3 3 3
3 3 4 5 6 8 9 7 5 5 5 6 7 8 8 7 6 5 4 4 4 4 4 5 6 8 9 10 10 8 6 4 3 4 4 3 2 2 2 2 2 2 2
2 2 2 3 4 6 7 5 3 3 4 4 5 7 8 7 6 4 3 3 3 3 3 4 6 7 8 9 9 8 4 2 1 2 2 2 1 2 2 2 2 2 2
Wind_Speed
9 9 8 8 7 7 6 6 6 5 6 6 5 5 5 5 4 4 4 4 4 4 4 4 4 4 4 4 4 4 4 4 5 3 2 2 3 4 2 3 3 4 5
9 9 8 8 7 7 7 7 6 6 6 6 5 5 5 5 5 5 5 4 4 4 4 4 4 4 4 5 4 5 4 5 5 5 3 3 3 4 4 4 4 4 3
10 9 9 8 8 7 7 6 6 6 6 5 5 5 5 5 5 5 5 5 4 4 4 4 4 4 5 4 4 5 5 5 4 5 4 2 3 3 4 4 4 3 4
9 9 9 8 8 7 7 6 6 5 5 5 5 5 5 5 4 5 5 5 5 4 4 4 4 4 4 4 4 5 5 5 5 5 4 3 3 3 4 4 4 4 4
9 9 9 8 7 7 6 6 6 6 6 5 5 5 5 5 4 4 5 5 5 4 4 4 3 3 2 3 3 3 4 4 4 4 4 3 3 2 4 4 3 3 3
9 9 8 7 7 7 6 6 6 6 5 5 5 5 5 4 2 2 4 4 4 4 5 4 4 4 4 4 3 3 3 4 5 4 4 4 4 4 3 4 4 4 3
7 6 6 6 6 6 6 6 6 6 5 5 5 5 5 3 3 4 4 5 5 4 4 4 4 2 3 3 5 6 5 5 5 5 6 5 5 4 4 5 5 5 4
6 6 6 6 6 5 5 5 5 5 5 5 5 5 4 3 4 5 5 6 5 5 4 4 4 3 2 3 4 4 4 4 5 6 5 5 4 3 4 6 5 6 6
6 6 6 6 6 6 6 5 5 4 5 5 4 4 4 4 4 5 6 5 4 5 4 3 3 3 2 3 5 5 5 4 5 5 5 5 4 4 5 5 5 5 5
5 5 5 6 6 6 5 5 4 5 5 4 4 4 4 4 3 5 5 4 4 4 4 4 3 3 3 4 5 5 6 5 4 4 5 6 6 6 8 7 6 6 6
4 4 4 5 5 5 4 4 5 5 4 4 3 3 3 3 4 4 4 4 4 4 3 3 2 3 4 4 6 5 5 6 5 5 5 4 4 4 5 6 5 6 6
3 4 4 4 4 4 4 4 5 5 5 4 4 3 3 3 2 3 4 5 5 4 3 2 0 2 4 5 5 4 6 6 5 5 4 4 4 4 4 5 5 6 6
3 3 3 3 3 3 4 5 5 5 4 4 4 3 3 2 3 5 5 5 5 4 2 2 1 3 5 5 6 6 6 5 5 5 5 5 4 4 4 4 5 6 7
3 3 3 3 3 3 3 3 3 3 4 4 4 3 3 3 3 3 3 4 4 4 3 2 4 6 5 4 4 5 5 4 4 5 5 5 4 4 4 4 4 4 5
4 3 4 3 3 3 2 0 2 1 1 3 3 3 3 3 1 1 2 2 2 1 2 3 3 3 3 3 3 3 4 4 4 5 5 5 4 4 4 3 4 4 5
3 3 3 3 3 3 3 2 6 3 3 1 1 2 0 2 2 2 2 2 1 2 3 3 3 3 3 3 3 3 3 4 4 4 5 5 4 4 4 4 5 5 6
3 3 3 3 3 3 3 3 2 2 3 2 1 1 2 3 3 2 1 1 2 4 4 3 3 3 3 3 3 3 3 3 3 4 4 4 4 4 4 5 5 5 6
4 3 3 3 3 3 3 3 3 3 2 1 2 4 5 4 4 3 3 2 2 4 3 3 3 3 3 3 3 3 3 3 3 3 4 4 4 4 4 5 5 5 6
3 3 2 2 2 2 2 3 3 3 2 2 2 3 5 5 5 4 5 3 2 2 2 2 3 3 3 3 3 3 3 3 3 4 4 4 4 5 5 5 5 5 6
1 2 2 2 2 2 2 3 2 3 3 3 3 2 3 3 2 3 3 3 2 2 2 2 2 3 3 3 3 3 3 3 4 4 4 4 4 4 5 6 5 5 5
1 2 3 2 2 2 2 2 2 2 3 3 2 1 0 2 2 2 2 2 2 2 2 3 3 3 3 3 3 3 4 4 4 4 4 4 4 4 4 4 5 5 4
1 1 2 2 2 2 1 1 2 2 2 2 1 2 2 3 2 2 2 1 2 2 2 3 3 3 2 2 3 3 4 4 4 4 4 4 4 4 4 5 5 4 5
1 1 1 1 1 2 2 1 1 1 1 1 1 1 1 1 1 1 1 1 2 2 2 3 3 3 2 3 3 3 3 3 4 5 5 5 5 5 5 5 6 6 5
1 1 1 1 1 2 1 1 1 0 0 0 0 0 0 0 1 2 2 2 2 2 3 3 3 4 5 4 3 3 3 4 6 5 6 6 6 6 6 6 6 6 6
1 1 1 1 2 1 1 1 0 0 0 1 1 1 1 1 1 1 2 2 3 3 4 4 3 4 5 5 5 4 5 5 5 6 6 6 7 7 7 7 6 6 6
2 2 1 2 2 1 1 0 0 0 0 1 1 1 1 1 2 2 2 2 2 2 3 3 4 5 6 5 5 5 3 4 5 6 7 6 6 6 7 6 7 7 7
Wind_Direction
190 191 194 195 199 205 211 214 214 215 210 211 214 216 217 216 212 214 230 223 228 233 238 238 247 267 268 259 249 250 249 253 260 261 245 212 214 246 209 224 219 217 179
186 186 191 195 200 206 208 212 211 211 212 211 213 216 219 216 213 215 225 225 228 233 239 246 252 248 249 262 257 253 248 246 252 258 249 235 225 228 220 234 236 232 219
182 185 188 194 197 203 206 206 208 208 210 211 213 219 222 220 217 219 226 230 233 237 242 242 250 253 253 256 259 259 255 248 249 254 250 243 241 226 219 229 232 243 236
186 189 191 197 200 201 201 202 203 204 205 206 205 212 218 224 225 229 228 233 237 241 248 249 251 252 256 258 253 255 260 260 250 252 251 241 236 217 224 231 222 214 229
190 194 195 195 196 198 199 203 202 202 202 199 203 208 214 218 224 229 229 227 231 238 243 243 244 243 270 276 280 274 264 260 258 253 250 247 239 227 235 242 243 230 216
194 199 195 193 193 195 195 198 200 202 200 199 205 210 213 216 183 214 244 236 236 238 242 243 232 212 205 205 232 267 274 258 264 265 260 259 255 252 252 252 248 241 239
189 194 192 190 191 196 198 197 204 204 199 201 207 212 214 212 188 190 219 239 242 245 248 252 255 226 215 229 217 217 225 232 241 256 264 268 268 260 257 252 244 252 263
185 187 186 183 184 189 193 198 205 205 203 204 206 209 213 207 182 192 215 230 244 247 245 244 248 264 251 256 253 240 241 232 231 240 258 264 266 275 254 251 254 248 243
182 184 187 188 188 191 191 196 200 200 202 201 200 202 207 204 187 198 218 226 231 241 241 242 245 244 266 250 246 248 251 246 224 223 246 254 255 251 256 255 244 246 248
183 188 192 195 195 196 195 196 195 197 203 203 200 204 207 206 190 195 218 229 227 234 228 223 207 241 263 232 238 246 251 258 259 233 230 232 233 221 214 233 246 248 257
190 193 197 203 203 198 194 191 194 201 203 206 201 205 206 207 185 185 213 235 236 236 239 239 206 187 226 236 243 247 257 269 261 248 241 237 234 230 226 226 239 251 259
186 191 191 194 205 192 194 196 195 197 201 205 205 213 204 201 195 183 200 232 269 247 259 273 308 172 213 230 235 253 259 261 256 253 252 248 245 247 243 239 237 245 257
176 185 183 186 189 190 196 197 197 197 206 210 211 214 205 189 174 177 189 214 248 255 282 2 317 224 223 220 220 235 244 244 250 252 254 255 254 255 252 239 235 238 245
180 183 182 186 184 178 194 198 200 202 207 211 216 220 210 203 199 186 190 194 206 225 245 216 219 230 236 245 227 220 230 244 255 256 261 263 260 253 248 246 249 240 243
190 191 192 190 175 169 176 172 218 203 267 246 236 232 232 223 181 29 275 241 249 245 245 235 237 234 238 237 237 239 241 233 239 253 257 260 255 254 253 246 247 250 255
202 204 206 197 176 175 157 105 48 53 66 46 319 271 178 100 113 89 43 15 342 264 251 249 251 255 261 266 261 253 244 248 252 251 251 257 259 256 255 248 244 247 251
216 216 215 202 185 183 184 181 158 94 77 81 140 155 154 141 142 151 146 281 245 228 239 259 271 276 279 278 278 279 275 266 267 266 261 260 261 259 257 258 252 247 251
218 206 210 208 201 190 198 204 199 188 178 165 147 154 159 165 175 182 184 202 222 229 256 270 275 277 281 284 283 284 288 286 275 270 267 267 267 265 263 261 260 260 259
221 208 209 209 207 205 206 208 207 197 192 195 195 168 168 174 186 200 207 236 246 251 263 270 273 272 275 276 278 279 278 284 284 275 270 268 268 268 267 268 268 264 261
199 157 202 209 204 199 207 210 206 198 196 207 215 196 172 193 200 194 210 237 258 269 274 276 280 282 279 274 270 273 275 271 268 266 269 267 266 268 269 272 275 274 268
169 165 183 201 201 203 203 212 210 209 205 210 210 133 215 236 233 231 238 237 256 269 276 280 275 271 273 276 275 275 278 278 279 282 281 279 278 275 273 273 272 272 275
169 190 196 198 196 188 197 218 217 211 204 215 193 156 199 240 241 239 251 260 277 285 290 284 282 283 286 283 280 283 285 291 296 296 292 286 279 274 274 273 274 276 276
182 198 203 201 202 169 190 216 214 206 211 198 188 179 198 264 293 301 303 318 316 310 307 298 295 297 305 304 300 296 302 313 313 312 305 294 289 281 277 274 271 273 272
172 185 186 176 182 182 171 172 178 199 231 143 114 74 294 329 327 333 333 341 339 335 326 313 306 306 309 308 303 307 343 340 319 303 298 294 289 285 281 279 278 278 278
119 135 152 143 143 143 128 126 128 84 28 43 50 21 357 355 351 346 345 343 334 332 331 327 320 313 314 315 322 341 5 350 328 317 298 287 283 283 282 280 280 279 278
93 95 100 97 98 99 99 140 122 60 20 12 12 28 10 0 4 2 351 340 329 323 315 317 322 323 319 318 340 356 350 329 318 309 297 287 286 288 290 285 285 285 283